Terminal Aerodrome Forecast
Issued by NWS

Home | Current Version | Previous Version | Graphics & Text | Print | Product List | Glossary On
Versions: 1 2 3 4 5 6 7 8 9 10 11 12 13 14 15 16 17 18 19 20 21 22 23 24 25 26 27 28 29 30 31 32
000
FTUS43 KLOT 212300 RRA
TAFDPA
TAF
KDPA 212342Z 2200/2224 29010KT 6SM SHRA OVC050
     FM220100 30008KT 6SM BR VCSH OVC045
     FM220130 31008KT P6SM OVC045
     FM220600 35012G18KT P6SM FEW070
     FM222200 01008G18KT P6SM FEW250=

USA.gov is the U.S. government's official web portal to all federal, state and local government web resources and services.